K4XP Weather Reports


time (UTC)temp
F
wind
direction
speed
knots
gust
knots
rain 1hr
in
rain 24hr
in
rain mn
in
humidity
%
barometer
mb
20260504035524 55 184 0.0 0.0 0.00 0.00 0.00 69 1016.8
20260504035020 55 192 0.0 0.0 0.00 0.00 0.00 69 1016.9
20260504034514 55 192 0.0 0.0 0.00 0.00 0.00 69 1016.9
20260504034011 55 192 0.0 0.0 0.00 0.00 0.00 69 1016.9
20260504033523 55 190 0.0 0.0 0.00 0.00 0.00 69 1017.0
20260504033011 55 202 0.0 0.0 0.00 0.00 0.00 69 1016.9
20260504032525 55 210 0.0 0.0 0.00 0.00 0.00 69 1016.9
20260504032018 55 202 0.0 0.0 0.00 0.00 0.00 69 1016.8
20260504031518 55 202 0.0 0.0 0.00 0.00 0.00 68 1016.8
20260504031024 56 202 0.0 0.0 0.00 0.00 0.00 68 1016.6
20260504030517 56 202 0.0 0.0 0.00 0.00 0.00 67 1016.7
20260504030013 56 202 0.0 0.0 0.00 0.00 0.00 66 1016.6
20260504025526 56 202 0.0 0.0 0.00 0.00 0.00 67 1016.7
20260504025018 57 202 0.0 0.0 0.00 0.00 0.00 66 1016.7
20260504024530 57 202 0.0 0.0 0.00 0.00 0.00 65 1016.7
20260504024023 57 202 0.0 0.0 0.00 0.00 0.00 65 1016.7
20260504023520 57 202 0.0 0.0 0.00 0.00 0.00 64 1016.7
20260504023013 58 201 0.0 0.0 0.00 0.00 0.00 63 1016.6
20260504022528 58 201 0.0 0.0 0.00 0.00 0.00 63 1016.6
20260504022024 58 202 0.0 0.0 0.00 0.00 0.00 62 1016.5
20260504021520 59 197 0.0 0.0 0.00 0.00 0.00 62 1016.5
20260504021015 59 196 0.0 0.0 0.00 0.00 0.00 61 1016.5
20260504020528 60 196 0.0 0.9 0.00 0.00 0.00 60 1016.4
20260504020020 60 192 0.0 0.9 0.00 0.00 0.00 59 1016.3
20260504015520 60 194 0.0 0.0 0.00 0.00 0.00 58 1016.3
20260504015016 60 176 0.0 0.0 0.00 0.00 0.00 57 1016.1
20260504014512 61 196 0.0 0.0 0.00 0.00 0.00 57 1016.1
20260504014027 61 173 0.0 0.0 0.00 0.00 0.00 57 1016.0
20260504013523 61 186 0.0 0.0 0.00 0.00 0.00 56 1016.0
20260504013018 61 160 0.0 0.9 0.00 0.00 0.00 56 1016.0
20260504012514 61 180 0.0 0.9 0.00 0.00 0.00 56 1016.0
20260504012014 61 175 0.0 0.0 0.00 0.00 0.00 55 1016.0
20260504011529 61 182 0.0 0.0 0.00 0.00 0.00 55 1016.0
20260504011024 61 190 0.0 0.0 0.00 0.00 0.00 55 1015.9
20260504010518 61 182 0.0 0.0 0.00 0.00 0.00 54 1015.9
20260504010014 61 171 0.0 0.0 0.00 0.00 0.00 54 1015.9
20260504005529 61 192 0.0 0.0 0.00 0.00 0.00 52 1015.8
20260504005021 62 211 0.0 0.0 0.00 0.00 0.00 53 1015.8
20260504004520 62 194 0.0 0.0 0.00 0.00 0.00 52 1015.8
20260504004017 62 190 0.0 0.0 0.00 0.00 0.00 52 1015.6
20260504003512 62 192 0.0 0.9 0.00 0.00 0.00 52 1015.7
20260504003029 63 183 0.0 0.9 0.00 0.00 0.00 51 1015.7
20260504002522 63 185 0.0 0.0 0.00 0.00 0.00 50 1015.6
20260504002018 64 187 0.0 0.0 0.00 0.00 0.00 49 1015.6
20260504001512 64 188 0.0 0.0 0.00 0.00 0.00 48 1015.4
20260504001025 65 189 0.0 0.0 0.00 0.00 0.00 47 1015.5
20260504000522 65 182 0.0 0.0 0.00 0.00 0.00 45 1015.4
20260504000019 65 182 0.0 0.0 0.00 0.00 0.00 45 1015.4
20260503235514 65 192 0.0 0.0 0.00 0.00 0.00 45 1015.4
20260503235029 66 190 0.0 0.0 0.00 0.00 0.00 44 1015.4
20260503234521 66 183 0.0 0.0 0.00 0.00 0.00 43 1015.5
20260503234014 66 173 0.0 0.9 0.00 0.00 0.00 43 1015.4
20260503233527 66 178 0.0 0.9 0.00 0.00 0.00 42 1015.4
20260503232515 67 201 0.0 0.0 0.00 0.00 0.00 42 1015.4
20260503232030 67 182 0.0 0.0 0.00 0.00 0.00 41 1015.4
20260503231526 67 185 0.0 0.0 0.00 0.00 0.00 41 1015.4
20260503231018 68 238 0.0 0.0 0.00 0.00 0.00 41 1015.5
20260503230512 68 241 0.0 0.9 0.00 0.00 0.00 41 1015.4
20260503230025 68 232 0.0 0.9 0.00 0.00 0.00 40 1015.4
20260503225520 68 200 0.0 0.0 0.00 0.00 0.00 40 1015.4
20260503225019 68 229 0.0 0.0 0.00 0.00 0.00 39 1015.5
20260503224515 68 205 0.0 0.0 0.00 0.00 0.00 40 1015.5
20260503224011 68 200 0.0 0.0 0.00 0.00 0.00 39 1015.5
20260503223528 68 281 0.0 0.0 0.00 0.00 0.00 39 1015.5
20260503223025 68 163 0.0 0.9 0.00 0.00 0.00 38 1015.4
20260503222520 68 192 0.0 0.9 0.00 0.00 0.00 39 1015.4
20260503222016 68 164 0.0 0.0 0.00 0.00 0.00 38 1015.5
20260503221516 68 174 0.0 0.0 0.00 0.00 0.00 40 1015.5
20260503221011 69 183 0.0 0.0 0.00 0.00 0.00 38 1015.5
20260503220527 69 209 0.0 0.0 0.00 0.00 0.00 39 1015.6
20260503220023 69 154 0.0 0.0 0.00 0.00 0.00 38 1015.5
20260503215520 69 260 0.0 0.0 0.00 0.00 0.00 39 1015.6
20260503215016 69 221 0.0 0.0 0.00 0.00 0.00 39 1015.7
20260503214513 69 196 0.0 0.0 0.00 0.00 0.00 39 1015.8
20260503214014 68 229 0.0 0.0 0.00 0.00 0.00 40 1015.8
20260503213530 68 187 0.0 0.0 0.00 0.00 0.00 39 1015.8
20260503213027 68 204 0.0 0.0 0.00 0.00 0.00 38 1015.8
20260503212523 68 209 0.0 0.0 0.00 0.00 0.00 39 1015.9
20260503212018 68 205 0.0 0.0 0.00 0.00 0.00 40 1015.9
20260503211515 68 245 0.0 0.9 0.00 0.00 0.00 39 1015.9
20260503211011 68 194 0.0 0.9 0.00 0.00 0.00 38 1015.9
20260503210528 68 241 0.0 0.9 0.00 0.00 0.00 38 1016.0
20260503210025 69 198 0.0 0.0 0.00 0.00 0.00 38 1016.0
20260503205520 69 182 0.0 0.9 0.00 0.00 0.00 39 1016.0
20260503205017 69 157 0.0 0.0 0.00 0.00 0.00 39 1016.1
20260503204513 68 178 0.0 0.0 0.00 0.00 0.00 39 1016.2
20260503204010 68 184 0.0 0.9 0.00 0.00 0.00 39 1016.2
20260503203526 68 169 0.0 0.9 0.00 0.00 0.00 38 1016.2
20260503203026 68 221 0.0 0.0 0.00 0.00 0.00 42 1016.3
20260503202523 68 205 0.0 0.0 0.00 0.00 0.00 40 1016.4
20260503202019 68 258 0.0 0.9 0.00 0.00 0.00 40 1016.6
20260503201516 68 196 0.0 0.9 0.00 0.00 0.00 39 1016.7
20260503201011 68 194 0.0 0.0 0.00 0.00 0.00 38 1016.7
20260503200527 68 302 0.0 0.0 0.00 0.00 0.00 41 1016.9
20260503200024 67 195 0.0 0.0 0.00 0.00 0.00 40 1017.0
20260503195524 67 236 0.0 0.0 0.00 0.00 0.00 40 1017.0
20260503195019 67 178 0.0 0.0 0.00 0.00 0.00 42 1017.1
20260503194515 68 167 0.0 0.0 0.00 0.00 0.00 38 1017.2
20260503194012 67 360 0.0 0.0 0.00 0.00 0.00 41 1017.1
20260503193528 67 249 0.0 0.9 0.00 0.00 0.00 39 1017.3
20260503193024 68 229 0.0 0.9 0.00 0.00 0.00 39 1017.3
20260503192521 67 271 0.0 0.0 0.00 0.00 0.00 41 1017.4
20260503192021 67 16 0.0 0.0 0.00 0.00 0.00 44 1017.5
20260503191517 66 219 0.0 0.0 0.00 0.00 0.00 40 1017.7
20260503191013 66 196 0.0 12.2 0.00 0.00 0.00 40 1017.7
20260503190530 66 194 1.7 12.2 0.00 0.00 0.00 40 1017.8
20260503190026 66 181 0.0 0.9 0.00 0.00 0.00 40 1017.8
20260503185523 66 169 0.0 0.9 0.00 0.00 0.00 40 1017.8
20260503185016 66 213 0.0 0.0 0.00 0.00 0.00 40 1017.9
20260503184516 66 196 0.0 0.0 0.00 0.00 0.00 42 1018.0
20260503184012 66 308 0.0 0.0 0.00 0.00 0.00 43 1018.0
20260503183528 66 201 0.0 0.0 0.00 0.00 0.00 42 1018.0
20260503183024 65 148 0.0 0.0 0.00 0.00 0.00 41 1018.1
20260503182520 66 196 0.0 0.9 0.00 0.00 0.00 42 1018.1
20260503182016 66 217 0.0 0.9 0.00 0.00 0.00 41 1018.2
20260503181512 66 189 0.0 0.0 0.00 0.00 0.00 43 1018.2
20260503181011 65 249 0.0 0.0 0.00 0.00 0.00 43 1018.2
20260503180528 65 197 0.0 0.0 0.00 0.00 0.00 44 1018.3
20260503180024 64 211 0.0 0.0 0.00 0.00 0.00 41 1018.3
20260503175520 65 188 0.0 0.0 0.00 0.00 0.00 44 1018.4
20260503175017 64 196 0.0 0.0 0.00 0.00 0.00 42 1018.4
20260503174513 64 85 0.0 0.0 0.00 0.00 0.00 45 1018.4
20260503174030 63 246 0.0 0.0 0.00 0.00 0.00 44 1018.6
20260503173511 63 229 0.0 1.7 0.00 0.00 0.00 42 1018.7
20260503173027 63 284 0.0 7.8 0.00 0.00 0.00 45 1018.7
20260503172523 63 224 0.0 7.0 0.00 0.00 0.00 44 1018.9
20260503172018 64 188 2.6 7.0 0.00 0.00 0.00 45 1018.9
20260503171514 64 217 0.0 3.5 0.00 0.00 0.00 44 1019.0
20260503171010 64 306 0.0 4.3 0.00 0.00 0.00 47 1019.0
20260503170526 63 297 1.7 4.3 0.00 0.00 0.00 46 1019.1
20260503151013 59 325 0.0 0.0 0.00 0.00 0.00 51 1020.2
20260503150527 59 24 0.0 0.0 0.00 0.00 0.00 52 1020.3
20260503131011 54 90 0.0 5.2 0.00 0.00 0.00 61 1020.0
20260503130528 53 72 0.9 4.3 0.00 0.00 0.00 64 1020.0
20260503110512 43 34 0.0 0.0 0.00 0.00 0.00 83 1019.1
20260503090511 47 34 0.0 0.0 0.00 0.01 0.00 72 1017.5
20260503081516 47 35 0.0 0.9 0.00 0.01 0.00 71 1017.1
20260503081012 47 35 0.0 0.0 0.00 0.01 0.00 71 1017.0
20260503080512 47 35 0.0 0.0 0.00 0.01 0.00 72 1017.1
20260503072519 46 27 0.0 1.7 0.00 0.01 0.00 75 1016.7
20260503072015 46 27 0.0 0.0 0.00 0.01 0.00 75 1016.7
20260503071530 46 27 0.0 0.0 0.00 0.01 0.00 75 1016.7
20260503071025 46 27 0.0 0.9 0.00 0.01 0.00 76 1016.6
20260503070521 46 27 0.0 0.9 0.00 0.01 0.00 75 1016.6
20260503055028 46 27 0.0 0.0 0.00 0.01 0.00 78 1016.3
20260503054524 46 27 0.0 0.0 0.00 0.01 0.00 78 1016.4
20260503054025 46 27 0.0 0.0 0.00 0.01 0.00 78 1016.3
20260503053520 46 27 0.0 0.0 0.00 0.01 0.00 78 1016.3
20260503053016 46 27 0.0 0.0 0.00 0.01 0.00 78 1016.3
20260503052512 47 27 0.0 0.0 0.00 0.01 0.00 77 1016.3
20260503052028 47 27 0.0 0.9 0.00 0.01 0.00 77 1016.3
20260503051523 47 27 0.0 0.9 0.00 0.01 0.00 77 1016.3
20260503051021 47 27 0.0 0.9 0.00 0.01 0.00 76 1016.3
20260503050520 47 27 0.0 0.0 0.00 0.01 0.00 75 1016.3
20260503050017 47 27 0.0 0.0 0.00 0.01 0.00 76 1016.3
20260503045513 48 27 0.0 0.0 0.00 0.01 0.00 75 1016.2
20260503045029 48 27 0.0 0.0 0.00 0.01 0.00 75 1016.3
20260503044525 48 27 0.0 0.0 0.00 0.01 0.00 74 1016.2
20260503044021 48 27 0.0 0.0 0.00 0.01 0.00 73 1016.2
20260503043518 49 27 0.0 0.0 0.00 0.01 0.00 74 1016.2
20260503043018 49 27 0.0 0.0 0.00 0.01 0.00 72 1016.1
20260503042513 49 27 0.0 0.0 0.00 0.01 0.00 70 1016.1
20260503042029 50 27 0.0 0.0 0.00 0.01 0.00 69 1016.1
20260503041525 50 27 0.0 0.0 0.00 0.01 0.00 68 1016.0
20260503041021 50 27 0.0 0.0 0.00 0.01 0.00 67 1016.0
20260503040517 50 27 0.0 0.9 0.00 0.01 0.00 65 1015.9
20260503040013 51 27 0.0 0.9 0.00 0.01 0.00 64 1015.9